Theta_e
315 313 316 317 320 320 322 323 326 330 334 339 340 339 338 339 339 338 336 335 334 332
312 311 313 316 318 319 320 324 326 328 331 334 336 337 336 335 336 332 327 325 325 323
308 310 314 315 315 316 318 321 321 322 324 326 329 329 329 329 330 329 328 328 326 323
305 306 308 312 314 315 317 318 318 319 321 323 325 324 321 322 324 320 321 324 322 323
303 303 304 305 307 310 313 317 317 318 319 321 324 323 320 320 322 317 317 321 321 320
302 302 302 303 304 306 308 312 316 317 317 319 320 323 322 319 321 318 320 321 322 323
300 301 301 302 303 305 306 307 310 316 317 318 321 322 323 322 320 319 322 321 320 320
300 300 301 301 301 302 303 305 307 310 316 317 319 320 321 319 318 316 317 320 322 322
299 299 299 300 300 301 302 304 305 308 311 317 320 310 308 311 317 319 321 321 325 329
298 299 299 298 297 298 300 301 302 305 311 314 317 307 305 308 314 315 316 320 324 323
296 297 298 297 297 297 298 298 302 305 309 314 318 307 302 305 311 313 315 321 319 317
297 296 296 296 296 297 298 298 297 300 303 310 315 304 303 307 314 314 317 320 319 317
296 296 296 297 296 297 297 297 299 301 302 307 312 303 303 305 312 312 317 318 317 310
296 297 297 298 298 297 296 297 300 301 302 307 311 312 301 299 310 314 317 316 315 313
Wind_Speed
8 5 5 6 5 5 5 6 10 12 13 13 14 14 15 16 15 14 14 23 7 6
7 7 7 8 6 5 6 6 7 11 15 14 14 14 11 10 14 11 6 7 6 7
11 12 10 7 8 7 7 6 7 7 11 16 14 11 9 8 7 9 7 5 9 8
10 11 10 9 9 9 8 8 7 7 8 12 14 8 7 8 9 8 9 9 10 14
11 12 11 10 10 9 11 12 8 7 8 9 11 8 8 9 10 11 8 9 11 12
14 13 13 13 13 10 11 11 11 9 9 9 11 11 12 9 9 11 11 10 14 14
15 14 14 15 13 11 13 13 10 10 11 10 9 11 12 12 11 11 12 12 12 13
14 14 14 14 15 14 15 14 12 9 11 12 9 8 9 8 10 10 7 7 7 11
16 15 15 13 14 16 16 9 8 7 8 11 7 8 8 4 4 6 8 10 10 10
16 15 14 14 15 16 14 11 13 9 7 11 11 7 7 1 2 8 12 13 7 3
14 15 14 14 15 14 14 13 6 7 8 7 8 12 10 10 3 8 10 14 11 7
14 15 15 15 14 13 12 9 6 9 10 9 8 12 10 9 4 5 11 9 10 10
15 16 16 16 14 12 12 13 10 12 12 14 9 13 12 1 1 6 6 6 4 11
16 16 16 16 13 11 10 11 12 10 9 8 9 11 15 11 5 5 7 9 7 6
Wind_Direction
235 229 232 230 245 254 244 271 294 291 277 265 261 266 253 245 246 238 230 226 231 280
246 242 239 246 238 241 258 263 281 298 292 273 263 262 262 258 257 238 195 172 165 236
347 338 317 294 260 250 256 259 273 285 292 286 270 249 237 233 216 214 227 220 209 206
332 332 333 327 314 298 282 265 265 267 279 284 285 255 230 215 201 180 179 180 192 206
309 304 302 302 304 306 310 299 273 266 268 277 282 250 229 213 191 172 179 191 191 193
297 295 295 292 290 289 299 305 297 270 263 265 271 264 238 219 212 207 211 183 177 172
295 292 291 291 291 289 291 291 300 286 273 263 261 261 253 234 220 220 220 186 173 170
293 287 285 288 288 284 280 276 274 286 296 263 255 261 261 243 216 208 211 192 200 199
295 292 284 285 290 288 282 271 265 269 287 273 253 261 273 312 330 308 305 237 237 229
298 298 294 290 288 285 283 284 279 256 261 271 271 215 197 282 308 283 278 285 261 216
293 295 296 291 290 287 277 277 267 292 259 250 262 249 151 132 297 280 266 281 220 152
292 291 289 283 281 287 296 291 277 279 267 274 246 231 243 148 197 291 280 242 207 141
294 283 278 274 274 276 283 279 266 263 243 238 238 207 219 197 46 289 273 209 183 170
284 280 276 276 265 263 269 282 262 260 282 255 221 205 190 146 190 190 234 178 178 162